OE5RLP-14 Weather Reports


Display with metric or nautical units.
time (UTC)temp
F
wind
direction
speed
MPH
gust
MPH
rain 1hr
in
rain 24hr
in
rain mn
in
humidity
%
barometer
mb
20260507171431 57 273 3.0 7.0 0.00 0.03 0.00 67 1015.5
20260507170429 57 0.0 0.0 0.00 0.03 0.00 66 1015.5
20260507165429 57 218 2.0 4.0 0.00 0.03 0.00 67 1015.4
20260507164429 57 227 2.0 4.0 0.00 0.03 0.00 67 1015.5
20260507163429 57 295 3.0 3.0 0.00 0.03 0.00 66 1015.6
20260507162429 58 285 4.0 6.0 0.00 0.03 0.00 66 1015.7
20260507161444 58 290 4.0 4.0 0.00 0.03 0.00 65 1015.5
20260507160459 58 293 3.0 6.0 0.00 0.03 0.00 67 1015.6
20260507155438 58 293 6.0 7.0 0.00 0.03 0.00 67 1015.4
20260507154435 58 289 8.0 11.0 0.00 0.03 0.00 65 1015.6
20260507153433 59 0.0 0.0 0.00 0.03 0.00 67 1015.4
20260507152430 58 0.0 0.0 0.00 0.03 0.00 65 1015.4
20260507151429 57 236 2.0 3.0 0.00 0.03 0.00 65 1015.3
20260507150429 57 253 1.0 2.0 0.00 0.03 0.00 64 1015.4
20260507145428 57 270 1.0 2.0 0.00 0.03 0.00 64 1015.5
20260507144429 57 296 4.0 4.0 0.00 0.03 0.00 62 1015.2
20260507143428 57 274 2.0 4.0 0.00 0.03 0.00 62 1015.0
20260507142505 58 295 3.0 6.0 0.00 0.03 0.00 61 1015.1
20260507141440 58 300 7.0 13.0 0.00 0.03 0.00 59 1015.0
20260507140437 58 270 4.0 4.0 0.00 0.03 0.00 60 1015.1
20260507135435 58 280 5.0 7.0 0.00 0.03 0.00 61 1015.1
20260507134432 59 291 5.0 8.0 0.00 0.03 0.00 63 1015.1
20260507133431 59 296 7.0 14.0 0.00 0.03 0.00 60 1015.1
20260507132429 59 283 8.0 13.0 0.00 0.03 0.00 61 1015.1
20260507131435 59 288 6.0 8.0 0.00 0.03 0.00 60 1015.0
20260507130428 60 291 5.0 9.0 0.00 0.03 0.00 59 1015.0
20260507125428 61 300 6.0 8.0 0.00 0.03 0.00 57 1015.0
20260507124445 61 298 4.0 6.0 0.00 0.03 0.00 61 1014.8
20260507123504 61 286 9.0 11.0 0.00 0.03 0.00 61 1014.8
20260507122440 60 267 6.0 10.0 0.00 0.03 0.00 61 1014.8
20260507121437 60 292 6.0 8.0 0.00 0.03 0.00 60 1014.9
20260507120434 61 292 8.0 11.0 0.00 0.03 0.00 60 1014.9
20260507115433 61 307 6.0 13.0 0.00 0.03 0.00 61 1014.8
20260507114428 60 286 8.0 11.0 0.00 0.03 0.00 61 1014.7
20260507113428 59 304 6.0 8.0 0.00 0.03 0.00 61 1014.9
20260507112429 60 329 8.0 13.0 0.00 0.03 0.00 59 1015.0
20260507111428 60 295 6.0 14.0 0.00 0.03 0.00 60 1015.0
20260507110444 60 298 6.0 8.0 0.00 0.03 0.00 61 1014.9
20260507105444 60 305 5.0 7.0 0.00 0.03 0.00 61 1015.1
20260507104443 59 278 5.0 6.0 0.00 0.03 0.00 61 1015.1
20260507103439 58 294 7.0 9.0 0.00 0.03 0.00 60 1015.2
20260507102457 59 289 6.0 11.0 0.00 0.03 0.00 59 1015.4
20260507101435 59 330 6.0 10.0 0.00 0.03 0.00 60 1015.3
20260507100430 59 290 9.0 13.0 0.00 0.03 0.00 61 1015.0
20260507095428 59 283 9.0 15.0 0.00 0.03 0.00 60 1015.2
20260507094425 60 291 7.0 10.0 0.00 0.03 0.00 61 1015.1
20260507093444 59 321 5.0 7.0 0.00 0.03 0.00 64 1015.1
20260507092420 59 312 10.0 17.0 0.00 0.03 0.00 62 1015.2
20260507091437 59 286 7.0 11.0 0.00 0.03 0.00 63 1015.2
20260507090444 58 285 7.0 11.0 0.00 0.03 0.00 61 1015.2
20260507085442 58 294 9.0 14.0 0.00 0.03 0.00 62 1015.2
20260507084500 57 290 14.0 19.0 0.00 0.03 0.00 62 1015.0
20260507083456 57 260 10.0 13.0 0.00 0.03 0.00 64 1015.0
20260507082453 57 266 11.0 17.0 0.00 0.03 0.00 63 1014.8
20260507081452 56 291 7.0 14.0 0.00 0.03 0.00 66 1014.8
20260507080427 56 296 9.0 16.0 0.00 0.03 0.00 66 1014.6
20260507075425 56 314 8.0 13.0 0.00 0.03 0.00 66 1014.9
20260507074422 55 281 6.0 7.0 0.00 0.03 0.00 68 1014.7
20260507073419 55 295 10.0 18.0 0.00 0.03 0.00 67 1014.7
20260507072418 55 291 6.0 10.0 0.00 0.03 0.00 67 1014.7
20260507071444 55 293 6.0 8.0 0.00 0.03 0.00 68 1014.6
20260507070442 56 300 10.0 15.0 0.00 0.03 0.00 67 1014.7
20260507065438 55 300 4.0 6.0 0.00 0.03 0.00 67 1014.8
20260507064435 55 284 9.0 14.0 0.00 0.03 0.00 67 1014.7
20260507063432 56 283 6.0 10.0 0.00 0.03 0.00 66 1014.9
20260507062429 55 286 9.0 11.0 0.00 0.03 0.00 66 1014.8
20260507061428 55 270 4.0 8.0 0.00 0.03 0.00 67 1014.5
20260507060424 56 280 8.0 11.0 0.00 0.03 0.00 68 1014.5
20260507055421 55 278 3.0 6.0 0.00 0.03 0.00 69 1014.5
20260507054420 55 256 4.0 7.0 0.00 0.03 0.00 68 1014.2
20260507053417 55 270 4.0 7.0 0.00 0.03 0.00 68 1014.2
20260507052443 55 291 3.0 3.0 0.00 0.03 0.00 69 1014.2
20260507051502 55 246 2.0 3.0 0.00 0.03 0.00 67 1013.9
20260507050558 54 229 1.0 2.0 0.00 0.03 0.00 70 1013.9
20260507045434 53 194 4.0 7.0 0.00 0.03 0.00 72 1013.7
20260507044431 52 215 2.0 3.0 0.00 0.03 0.00 73 1013.7
20260507043429 52 265 2.0 3.0 0.00 0.03 0.00 73 1013.6
20260507042426 51 240 2.0 2.0 0.00 0.03 0.00 75 1013.6
20260507041424 51 220 2.0 4.0 0.00 0.03 0.00 76 1013.5
20260507040420 51 192 2.0 2.0 0.00 0.03 0.00 76 1013.4
20260507035430 51 267 3.0 4.0 0.00 0.03 0.00 76 1013.1
20260507034446 51 201 2.0 2.0 0.00 0.03 0.00 77 1013.1
20260507033442 51 229 1.0 2.0 0.00 0.03 0.00 77 1012.9
20260507032439 51 283 2.0 3.0 0.00 0.03 0.00 76 1012.8
20260507031458 52 269 1.0 3.0 0.00 0.03 0.00 76 1013.0
20260507030435 52 269 5.0 9.0 0.00 0.03 0.00 75 1013.0
20260507025431 52 293 2.0 4.0 0.00 0.03 0.00 76 1012.8
20260507024433 52 256 5.0 7.0 0.00 0.03 0.00 77 1012.8
20260507023429 52 170 1.0 2.0 0.00 0.03 0.00 77 1012.6
20260507022430 52 226 2.0 2.0 0.00 0.03 0.00 77 1012.8
20260507021429 52 255 2.0 2.0 0.00 0.03 0.00 77 1012.4
20260507020428 52 270 2.0 4.0 0.00 0.03 0.00 77 1012.6
20260507015505 52 285 4.0 9.0 0.00 0.03 0.00 78 1012.6
20260507014442 51 265 2.0 3.0 0.00 0.03 0.00 78 1012.6
20260507013439 52 259 2.0 4.0 0.00 0.03 0.00 78 1012.7
20260507012436 52 265 1.0 1.0 0.00 0.03 0.00 76 1012.1
20260507011435 52 254 4.0 7.0 0.00 0.03 0.00 75 1012.2
20260507010430 53 287 8.0 14.0 0.00 0.03 0.00 73 1012.1
20260507005428 53 299 3.0 6.0 0.00 0.03 0.00 74 1012.2
20260507004426 53 267 5.0 9.0 0.00 0.03 0.00 74 1012.2
20260507003429 52 267 1.0 2.0 0.00 0.03 0.00 76 1012.1
20260507002428 52 219 5.0 8.0 0.00 0.03 0.00 77 1012.1
20260507001429 52 235 1.0 3.0 0.00 0.03 0.00 78 1012.3
20260507000445 52 263 2.0 6.0 0.00 0.03 0.00 79 1012.1
20260506235502 52 279 3.0 6.0 0.00 0.03 0.00 80 1012.2
20260506234438 52 263 6.0 10.0 0.00 0.03 0.00 80 1012.5
20260506233457 52 267 4.0 6.0 0.00 0.03 0.00 80 1012.1
20260506232433 52 209 5.0 8.0 0.00 0.03 0.00 81 1012.1
20260506231430 52 271 5.0 8.0 0.00 0.03 0.00 82 1012.0
20260506230429 52 261 4.0 6.0 0.00 0.03 0.00 83 1012.0
20260506225429 52 252 2.0 3.0 0.00 0.03 0.00 84 1012.0
20260506224431 52 271 2.0 4.0 0.00 0.03 0.00 85 1011.8
20260506223507 52 271 2.0 4.0 0.00 0.03 0.00 86 1011.7
20260506222434 52 285 4.0 7.0 0.00 0.03 0.00 86 1011.8
20260506221443 51 274 4.0 7.0 0.00 0.03 0.00 88 1011.6
20260506220441 51 225 3.0 7.0 0.00 0.03 0.00 90 1011.7
20260506215458 51 269 5.0 7.0 0.01 0.03 0.03 91 1011.7
20260506214435 52 293 6.0 8.0 0.01 0.03 0.03 91 1011.4
20260506213433 52 251 3.0 4.0 0.02 0.03 0.03 94 1011.4
20260506212452 52 285 3.0 6.0 0.03 0.03 0.03 94 1011.2
20260506211429 52 272 5.0 7.0 0.03 0.03 0.03 94 1011.2
20260506210429 52 290 7.0 13.0 0.03 0.03 0.03 93 1010.9
20260506205430 52 282 8.0 10.0 0.02 0.02 0.02 93 1010.6
20260506204431 53 287 12.0 17.0 0.02 0.02 0.02 92 1010.7
20260506203429 54 302 12.0 19.0 0.01 0.01 0.01 90 1010.5
20260506202444 55 282 15.0 35.0 0.00 0.00 0.00 86 1010.1
20260506201441 56 283 12.0 16.0 0.00 0.00 0.00 84 1009.7
20260506200439 57 291 11.0 15.0 0.00 0.00 0.00 82 1009.6
20260506195435 57 282 15.0 25.0 0.00 0.00 0.00 80 1009.4
20260506194433 58 301 12.0 21.0 0.00 0.00 0.00 76 1008.8
20260506193430 58 290 6.0 11.0 0.00 0.00 0.00 74 1009.0
20260506192429 58 283 10.0 17.0 0.00 0.00 0.00 72 1008.6
20260506191429 59 283 5.0 9.0 0.00 0.00 0.00 69 1008.2
20260506190429 59 294 6.0 10.0 0.00 0.00 0.00 68 1008.3
20260506185427 59 288 12.0 15.0 0.00 0.00 0.00 68 1008.2
20260506184444 59 294 10.0 14.0 0.00 0.00 0.00 68 1007.8
20260506183444 59 291 10.0 13.0 0.00 0.00 0.00 67 1007.4
20260506182442 60 293 10.0 13.0 0.00 0.00 0.00 65 1007.2
20260506181438 63 280 13.0 16.0 0.00 0.00 0.00 58 1006.3
20260506180435 67 212 5.0 10.0 0.00 0.00 0.00 47 1005.4
20260506175432 67 171 6.0 14.0 0.00 0.00 0.00 47 1004.7
20260506174430 68 158 10.0 18.0 0.00 0.00 0.00 46 1004.3
20260506173429 68 190 11.0 19.0 0.00 0.00 0.00 46 1003.9
20260506172429 69 213 14.0 24.0 0.00 0.00 0.00 45 1003.6